Regional Weather Roundup
Issued by NWS

Home | Current Version | Previous Version | Text Only | Print | Product List | Glossary On
Versions: 1 2 3 4 5 6 7 8 9 10 11 12 13 14 15 16 17 18 19 20 21 22 23 24 25 26 27 28 29 30 31 32 33 34 35 36 37 38 39 40 41 42 43 44 45 46 47 48 49 50
000
ASUS45 KBOI 050410
RWRID

IDAHO REGIONAL WEATHER ROUNDUP
NATIONAL WEATHER SERVICE BOISE ID
1000 PM MDT SAT JUL 04 2015

NOTE: "FAIR" INDICATES FEW OR NO CLOUDS BELOW 12000 FEET
WITH NO SIGNIFICANT WEATHER AND/OR OBSTRUCTIONS TO VISIBILITY

IDZ012-014-050500-
SOUTHWEST IDAHO


CITY           SKY/WX    TMP DP  RH WIND       PRES   REMARKS
BOISE          CLOUDY    89  44  20 NE5       29.75S
CALDWELL       CLOUDY    86  50  28 S3        29.74R
MOUNTAIN HOME  CLOUDY    90  35  14 NW3       29.77R
$$

IDZ016-017-050500-
SOUTHCENTRAL IDAHO


CITY           SKY/WX    TMP DP  RH WIND       PRES   REMARKS
BURLEY         CLOUDY    79  50  36 S16       29.87S
JEROME         CLOUDY    78  52  40 S9        29.89R
TWIN FALLS     CLOUDY    82  48  30 S15       29.87R
$$

IDZ019>023-050500-
SOUTHEAST IDAHO


CITY           SKY/WX    TMP DP  RH WIND       PRES   REMARKS
IDAHO FALLS    CLOUDY    77  48  35 SW10      29.88R
POCATELLO      CLEAR     80  47  31 SW9       29.89R
REXBURG        CLOUDY    81  44  27 S12       29.89R
$$

IDZ006-010-011-018-031-032-050500-
CENTRAL IDAHO MOUNTAINS


CITY           SKY/WX    TMP DP  RH WIND       PRES   REMARKS
MCCALL         CLOUDY    75  40  28 NE5       29.93R
HAILEY         MOCLDY    81  45  28 CALM      29.96R
STANLEY          N/A     67  36  31 CALM      30.07S
SALMON         CLOUDY    82  43  24 S8        29.79R
CHALLIS        CLOUDY    86  30  13 W12       29.90R
$$

IDZ002-004-006-007-026-050500-
NORTHERN IDAHO


CITY           SKY/WX    TMP DP  RH WIND       PRES   REMARKS
LEWISTON       MOCLDY    93  41  16 NW10      29.66R
LOWELL           N/A     76  58  53 CALM      29.70R
COEUR D`ALENE  CLEAR     88  48  25 SE5       29.69R
MULLAN PASS    CLEAR     70  38  31 VRB3      30.01S
$$


USA.gov is the U.S. government's official web portal to all federal, state and local government web resources and services.